Location: Dammartin
(48.9032°N, 1.6195°E)
Time: 09:52:18
(UTC+00:00)

Cosmos 1340 - Pass Details

Date: 03 February 2023
Orbit: 478 x 483 km, 81.2° (Epoch: 28 March)

Event Time Altitude Azimuth Distance (km) Brightness Sun altitude
Rises 18:35:18 0° 350° (N) 2,554 6.3 -16.9°
Reaches altitude 10° 18:37:25 10° 353° (N) 1,671 5.3 -17.2°
Maximum altitude 18:41:04 66° 77° (ENE) 534 2.4 -17.8°
Drops below altitude 10° 18:44:41 10° 160° (SSE) 1,664 5.1 -18.4°
Enters shadow 18:44:45 10° 160° (SSE) 1,694 5.1 -18.4°
